{"data":{"norad_id":61596,"epoch":"2026-09-19T22:50:40.881984Z","epoch_age_seconds":65661,"freshness":"FRESH","line1":"1 61596U 24188C   26262.95186206  .00000027  00000+0  36659-4 0  9996","line2":"2 61596  87.9197 347.0551 0003015 113.3216 246.8233 13.17647338 98379","mean_motion":13.17647338,"eccentricity":0.0003015,"inclination_deg":87.9197,"raan_deg":347.0551,"arg_perigee_deg":113.3216,"mean_anomaly_deg":246.8233,"bstar":3.6659e-5,"rev_number":9837,"period_min":109.28569113081,"perigee_km":1191.4367122028,"apogee_km":1196.0025417488,"semimajor_km":7571.8566269758,"source":"CELESTRAK","updated_at":"2026-09-20T09:00:44.798395Z"}}